Weather History for Plattsburgh, NY

Change the Weather History Date:

Tuesday, November 5, 2013

  Actual Average Record
Temperature  
Mean Temperature 36 °F 41 °F  
Max Temperature 48 °F 50 °F 68 °F (1948)
Min Temperature 24 °F 31 °F 19 °F (1986)
Degree Days  
Heating Degree Days 29 24  
Month to date heating degree days 119 118  
Since 1 July heating degree days 895 901  
Moisture  
Dew Point 26 °F    
Average Humidity 64    
Maximum Humidity 89    
Minimum Humidity 39    
Precipitation  
Precipitation 0.00 in - 0.67 in (1985)
Month to date precipitation 0.17  
Year to date precipitation 28.87  
Sea Level Pressure  
Sea Level Pressure 30.52 in    
Wind  
Wind Speed 5 mph (South)    
Max Wind Speed 18 mph    
Max Gust Speed 24 mph    
Visibility 10 miles    
Events      
T = Trace of Precipitation, MM = Missing Value Source: NWS Daily Summary

Daily Weather History Graph

Daily Weather History Graph

Search for Another Location

Airport:

Trip Planner

Search our weather history database for the weather conditions in past years. The results will help you decide how hot, cold, wet, or windy it might be!

Date:

Astronomy

Nov. 05, 2013 Rise Set
Actual Time 6:37 AM EST 4:36 PM EST
Civil Twilight 6:06 AM EST 5:07 PM EST
Nautical Twilight 5:31 AM EST 5:42 PM EST
Astronomical Twilight 4:57 AM EST 6:16 PM EST
Moon 8:53 AM EST (11/5) 6:32 PM EST (11/5)
Length of Visible Light 11h 01m
Length of Day
9h 59m
Waxing Crescent, 6% of the Moon is Illuminated
Nov 5
Waxing Crescent
Nov 10
First Quarter
Nov 17
Full
Nov 25
Last Quarter
Dec 2
New

Hourly Weather History & Observations

Time (EST) Temp. Windchill Dew Point Humidity Pressure Visibility Wind Dir Wind Speed Gust Speed Precip Events Conditions
12:53 AM 28.0 °F 20.8 °F 21.9 °F 78% 30.62 in 10.0 mi South 6.9 mph - N/A   Clear
1:53 AM 28.9 °F - 23.0 °F 78% 30.62 in 10.0 mi Calm Calm - N/A   Clear
2:53 AM 28.9 °F 23.9 °F 21.9 °F 75% 30.59 in 10.0 mi South 4.6 mph - N/A   Clear
3:53 AM 28.0 °F 24.2 °F 21.9 °F 78% 30.59 in 10.0 mi West 3.5 mph - N/A   Clear
4:53 AM 26.1 °F 21.9 °F 21.9 °F 84% 30.59 in 10.0 mi WSW 3.5 mph - N/A   Clear
5:53 AM 25.0 °F 20.7 °F 21.9 °F 88% 30.58 in 10.0 mi SW 3.5 mph - N/A   Clear
6:53 AM 26.1 °F - 21.0 °F 81% 30.58 in 10.0 mi Calm Calm - N/A   Clear
7:53 AM 30.0 °F - 23.0 °F 75% 30.58 in 10.0 mi Calm Calm - N/A   Clear
8:53 AM 37.9 °F - 21.9 °F 53% 30.57 in 10.0 mi Calm Calm - N/A   Clear
9:53 AM 43.0 °F 38.8 °F 19.9 °F 40% 30.55 in 10.0 mi South 6.9 mph - N/A   Clear
10:53 AM 45.0 °F 37.6 °F 23.0 °F 42% 30.54 in 10.0 mi SSE 17.3 mph - N/A   Clear
11:53 AM 45.0 °F 38.2 °F 25.0 °F 46% 30.52 in 10.0 mi SE 15.0 mph - N/A   Clear
12:53 PM 46.0 °F 39.6 °F 27.0 °F 47% 30.51 in 10.0 mi SE 15.0 mph 21.9 mph N/A   Clear
1:53 PM 48.0 °F - 30.9 °F 52% 30.49 in 10.0 mi SSE 15.0 mph 21.9 mph N/A   Clear
2:53 PM 46.0 °F 41.4 °F 30.0 °F 54% 30.48 in 10.0 mi SSE 9.2 mph - N/A   Clear
3:53 PM 46.0 °F 41.9 °F 30.0 °F 54% 30.47 in 10.0 mi South 8.1 mph - N/A   Clear
4:53 PM 44.1 °F 40.1 °F 30.0 °F 58% 30.46 in 10.0 mi South 6.9 mph - N/A   Clear
5:53 PM 42.1 °F - 30.0 °F 62% 30.45 in 10.0 mi Calm Calm - N/A   Clear
6:53 PM 41.0 °F 38.0 °F 30.9 °F 67% 30.45 in 10.0 mi South 4.6 mph - N/A   Clear
7:53 PM 35.1 °F - 30.0 °F 82% 30.45 in 10.0 mi Calm Calm - N/A   Clear
8:53 PM 35.1 °F - 30.0 °F 82% 30.44 in 10.0 mi Calm Calm - N/A   Clear
9:53 PM 34.0 °F - 30.0 °F 85% 30.42 in 10.0 mi Calm Calm - N/A   Clear
10:53 PM 37.0 °F 33.3 °F 30.9 °F 79% 30.42 in 10.0 mi WSW 4.6 mph - N/A   Overcast
11:53 PM 34.0 °F - 30.0 °F 85% 30.39 in 10.0 mi Calm Calm - N/A   Clear